CW5619 Weather Reports


time (UTC)temp
F
wind
direction
speed
knots
gust
knots
rain 1hr
in
rain 24hr
in
rain mn
in
humidity
%
barometer
mb
20260831211403 76 136 0.9 4.3 0.00 0.00 0.00 76 1016.4
20260831210902 76 167 1.7 4.3 0.00 0.00 0.00 76 1016.6
20260831205903 76 93 0.9 2.6 0.00 0.00 0.00 76 1016.8
20260831205403 76 120 0.9 2.6 0.00 0.00 0.00 76 1016.9
20260831204903 76 116 0.9 2.6 0.00 0.00 0.00 76 1017.0
20260831204403 76 144 0.9 6.1 0.00 0.00 0.00 76 1017.3
20260831203903 76 112 1.7 6.1 0.00 0.00 0.00 76 1017.3
20260831203403 76 105 1.7 6.1 0.00 0.00 0.00 76 1017.5
20260831202903 76 140 1.7 6.1 0.00 0.00 0.00 76 1017.6
20260831202403 76 148 0.0 6.1 0.00 0.00 0.00 76 1018.0
20260831201404 76 103 1.7 7.0 0.00 0.00 0.00 75 1018.2
20260831200902 76 121 1.7 7.8 0.00 0.00 0.00 74 1018.3
20260831200403 76 91 1.7 7.8 0.00 0.00 0.00 74 1018.3
20260831195902 76 108 2.6 7.8 0.00 0.00 0.00 74 1018.5
20260831195403 76 143 3.5 7.8 0.00 0.00 0.00 73 1018.6
20260831194903 76 107 1.7 8.7 0.00 0.00 0.00 74 1018.6
20260831194403 77 110 3.5 8.7 0.00 0.00 0.00 73 1018.5
20260831193903 77 84 1.7 6.1 0.00 0.00 0.00 72 1018.8
20260831193403 77 58 2.6 8.7 0.00 0.00 0.00 72 1019.1
20260831192403 77 64 4.3 8.7 0.00 0.00 0.00 72 1018.6
20260831191904 77 58 2.6 8.7 0.00 0.00 0.00 71 1018.7
20260831191404 77 68 2.6 8.7 0.00 0.00 0.00 71 1018.8
20260831190904 77 56 4.3 8.7 0.00 0.00 0.00 72 1018.7
20260831190403 77 73 2.6 7.0 0.00 0.00 0.00 71 1019.0
20260831185903 77 54 2.6 6.1 0.00 0.00 0.00 71 1019.2
20260831185403 77 78 1.7 6.1 0.00 0.00 0.00 71 1019.4
20260831184904 77 99 0.9 6.1 0.00 0.00 0.00 71 1019.5
20260831184403 77 85 2.6 6.1 0.00 0.00 0.00 71 1019.5
20260831183903 77 43 0.9 2.6 0.00 0.00 0.00 71 1019.3
20260831183403 77 57 0.9 2.6 0.00 0.00 0.00 70 1019.4
20260831182903 77 63 0.0 2.6 0.00 0.00 0.00 70 1019.6
20260831182403 77 38 0.9 2.6 0.00 0.00 0.00 70 1019.7
20260831181903 77 348 0.0 0.9 0.00 0.00 0.00 71 1019.7
20260831180903 77 348 0.9 2.6 0.00 0.00 0.00 70 1019.7
20260831180403 78 253 0.9 2.6 0.00 0.00 0.00 71 1019.5
20260831175903 78 302 0.9 2.6 0.00 0.00 0.00 71 1019.6
20260831175403 78 38 1.7 2.6 0.00 0.00 0.00 70 1019.6
20260831174903 78 41 1.7 5.2 0.00 0.00 0.00 70 1019.7
20260831174403 78 18 0.9 5.2 0.00 0.00 0.00 70 1019.7
20260831173903 78 304 1.7 4.3 0.00 0.00 0.00 70 1019.6
20260831173403 78 300 0.9 2.6 0.00 0.00 0.00 70 1019.8
20260831172903 78 221 0.0 2.6 0.00 0.00 0.00 69 1019.9
20260831172403 78 230 0.9 2.6 0.00 0.00 0.00 68 1019.8
20260831171904 78 336 1.7 2.6 0.00 0.00 0.00 69 1019.4
20260831171403 79 5 1.7 2.6 0.00 0.00 0.00 69 1019.3
20260831170403 79 302 0.9 7.8 0.00 0.00 0.00 69 1019.2
20260831165903 79 230 1.7 7.8 0.00 0.00 0.00 69 1019.1
20260831165403 80 280 2.6 7.8 0.00 0.00 0.00 68 1019.0
20260831164903 80 198 0.9 5.2 0.00 0.00 0.00 67 1019.1
20260831164403 80 255 0.9 5.2 0.00 0.00 0.00 65 1019.0
20260831163903 80 215 1.7 7.0 0.00 0.00 0.00 64 1018.8
20260831163403 81 272 1.7 7.0 0.00 0.00 0.00 64 1018.5
20260831162403 81 289 1.7 7.0 0.00 0.00 0.00 63 1017.9
20260831161903 81 244 0.9 4.3 0.00 0.00 0.00 62 1017.8
20260831161403 81 318 2.6 4.3 0.00 0.00 0.00 60 1017.8
20260831160903 81 348 0.0 5.2 0.00 0.00 0.00 61 1017.8
20260831160403 81 30 0.0 5.2 0.00 0.00 0.00 60 1017.6
20260831155903 81 36 1.7 4.3 0.00 0.00 0.00 57 1017.5
20260831155403 81 82 0.9 7.8 0.00 0.00 0.00 57 1017.4
20260831154903 81 55 1.7 7.8 0.00 0.00 0.00 56 1017.1
20260831154403 81 94 2.6 5.2 0.00 0.00 0.00 57 1016.9
20260831153903 81 68 1.7 4.3 0.00 0.00 0.00 58 1016.8
20260831153403 80 82 1.7 5.2 0.00 0.00 0.00 60 1016.8
20260831152903 80 115 1.7 5.2 0.00 0.00 0.00 64 1016.9
20260831152403 80 66 1.7 5.2 0.00 0.00 0.00 66 1017.0
20260831151403 80 69 0.9 2.6 0.00 0.00 0.00 66 1016.9
20260831150903 80 61 0.9 2.6 0.00 0.00 0.00 67 1016.8
20260831150403 79 54 0.9 2.6 0.00 0.00 0.00 67 1016.7
20260831145903 79 119 0.0 1.7 0.00 0.00 0.00 65 1016.6
20260831145403 79 105 0.0 0.0 0.00 0.00 0.00 66 1016.5
20260831144902 79 105 0.0 2.6 0.00 0.00 0.00 64 1016.4
20260831144403 79 105 0.0 7.0 0.00 0.00 0.00 62 1016.4
20260831143904 79 122 0.9 7.0 0.00 0.00 0.00 62 1016.2
20260831143403 79 112 2.6 10.4 0.00 0.00 0.00 62 1015.9
20260831142903 79 91 2.6 10.4 0.00 0.00 0.00 62 1015.7
20260831142403 79 69 2.6 10.4 0.00 0.00 0.00 62 1015.3
20260831141903 79 66 3.5 12.2 0.00 0.00 0.00 62 1015.3
20260831141403 78 77 4.3 12.2 0.00 0.00 0.00 64 1015.2
20260831140904 78 52 3.5 10.4 0.00 0.00 0.00 65 1015.3
20260831135903 78 44 5.2 13.0 0.00 0.00 0.00 67 1015.4
20260831135403 78 59 5.2 13.0 0.00 0.00 0.00 68 1015.5
20260831134903 78 41 3.5 11.3 0.00 0.00 0.00 69 1015.5
20260831133903 78 37 4.3 13.9 0.00 0.00 0.00 69 1015.5
20260831132903 79 53 6.1 14.8 0.00 0.00 0.00 69 1015.7
20260831132403 79 50 4.3 12.2 0.00 0.00 0.00 68 1016.1
20260831131903 79 48 3.5 8.7 0.00 0.00 0.00 69 1016.5
20260831130403 79 54 4.3 10.4 0.00 0.00 0.00 68 1016.9
20260831125903 79 80 0.9 8.7 0.00 0.00 0.00 68 1017.1
20260831125403 79 54 4.3 8.7 0.00 0.00 0.00 67 1016.5
20260831124903 79 58 3.5 7.8 0.00 0.00 0.00 66 1016.6
20260831124403 79 48 1.7 10.4 0.00 0.00 0.00 67 1016.5
20260831123903 79 43 4.3 11.3 0.00 0.00 0.00 66 1016.4
20260831123403 79 38 3.5 11.3 0.00 0.00 0.00 68 1016.3
20260831122404 79 37 2.6 10.4 0.00 0.00 0.00 67 1016.3
20260831121904 80 37 4.3 10.4 0.00 0.00 0.00 67 1016.5
20260831121404 80 26 4.3 10.4 0.00 0.00 0.00 66 1016.7
20260831120904 80 33 2.6 10.4 0.00 0.00 0.00 66 1017.0
20260831120403 80 32 3.5 10.4 0.00 0.00 0.00 66 1017.0
20260831115903 81 247 2.6 7.8 0.00 0.00 0.00 64 1016.7
20260831115403 81 199 2.6 7.0 0.00 0.00 0.00 63 1016.6
20260831114903 82 214 1.7 6.1 0.00 0.00 0.00 61 1016.5
20260831114403 82 221 1.7 10.4 0.00 0.00 0.00 60 1016.5
20260831113903 83 230 3.5 11.3 0.00 0.00 0.00 58 1016.5
20260831113403 83 243 4.3 12.2 0.00 0.00 0.00 57 1016.1
20260831112903 83 249 4.3 14.8 0.00 0.00 0.00 54 1015.9
20260831112403 84 258 7.8 15.6 0.00 0.00 0.00 53 1015.5
20260831111903 84 230 6.1 18.2 0.00 0.00 0.00 53 1015.1
20260831110903 85 224 7.0 18.2 0.00 0.00 0.00 51 1015.1
20260831110403 86 232 8.7 17.4 0.00 0.00 0.00 50 1015.1
20260831105903 86 233 2.6 7.8 0.00 0.00 0.00 46 1014.2
20260831105404 86 220 0.9 1.7 0.00 0.00 0.00 46 1013.8
20260831104903 86 247 0.0 0.9 0.00 0.00 0.00 46 1013.5
20260831104403 86 301 0.0 0.0 0.00 0.00 0.00 47 1013.2
20260831103903 86 301 0.0 0.0 0.00 0.00 0.00 47 1013.2
20260831102904 86 301 0.0 0.0 0.00 0.00 0.00 47 1013.4
20260831101903 86 301 0.0 0.0 0.00 0.00 0.00 48 1013.4
20260831100403 86 299 0.0 0.0 0.00 0.00 0.00 46 1013.2
20260831095903 86 299 0.0 0.0 0.00 0.00 0.00 46 1012.9
20260831095403 87 299 0.0 0.0 0.00 0.00 0.00 46 1012.9
20260831094903 87 299 0.0 0.9 0.00 0.00 0.00 46 1012.9
20260831094403 87 315 0.0 1.7 0.00 0.00 0.00 46 1013.0
20260831093903 87 323 0.0 1.7 0.00 0.00 0.00 46 1013.0
20260831093403 87 314 0.9 1.7 0.00 0.00 0.00 46 1013.0
20260831092903 87 41 0.0 1.7 0.00 0.00 0.00 46 1013.0
20260831091904 87 16 0.0 0.9 0.00 0.00 0.00 46 1013.1
20260831091403 87 16 0.0 0.9 0.00 0.00 0.00 46 1013.2
20260831090903 87 16 0.0 0.0 0.00 0.00 0.00 47 1013.2
20260831090403 87 16 0.0 2.6 0.00 0.00 0.00 46 1013.1
20260831085904 87 16 0.0 2.6 0.00 0.00 0.00 47 1013.2
20260831085403 87 55 0.9 2.6 0.00 0.00 0.00 47 1013.2
20260831084903 87 65 0.0 0.0 0.00 0.00 0.00 46 1013.2
20260831084403 87 65 0.0 0.0 0.00 0.00 0.00 46 1013.2
20260831083903 87 65 0.0 0.0 0.00 0.00 0.00 46 1013.2
20260831083403 87 65 0.0 0.9 0.00 0.00 0.00 46 1013.3
20260831081903 87 65 0.0 0.0 0.00 0.00 0.00 48 1013.3
20260831081403 87 65 0.0 0.0 0.00 0.00 0.00 48 1013.3
20260831080903 87 65 0.0 1.7 0.00 0.00 0.00 49 1013.3
20260831080403 87 65 0.0 1.7 0.00 0.00 0.00 48 1013.4
20260831075903 88 336 0.0 0.0 0.00 0.00 0.00 46 1013.2
20260831074903 88 336 0.0 0.9 0.00 0.00 0.00 46 1013.4
20260831074403 88 336 0.0 0.9 0.00 0.00 0.00 45 1013.3
20260831073903 88 286 0.0 0.0 0.00 0.00 0.00 42 1013.3
20260831073403 89 286 0.0 0.9 0.00 0.00 0.00 42 1013.4
20260831072903 89 286 0.0 0.9 0.00 0.00 0.00 42 1013.4
20260831071904 89 292 0.0 0.9 0.00 0.00 0.00 42 1013.3
20260831070903 89 292 0.0 0.9 0.00 0.00 0.00 42 1013.4
20260831070403 89 292 0.0 1.7 0.00 0.00 0.00 42 1013.5
20260831065904 89 292 0.0 1.7 0.00 0.00 0.00 42 1013.5
20260831065403 89 331 0.0 0.9 0.00 0.00 0.00 42 1013.6
20260831064903 89 334 0.0 0.9 0.00 0.00 0.00 42 1013.6
20260831064403 89 333 0.0 0.9 0.00 0.00 0.00 42 1013.6
20260831063903 89 333 0.0 0.9 0.00 0.00 0.00 42 1013.7
20260831063403 89 333 0.0 0.9 0.00 0.00 0.00 42 1013.7
20260831062903 89 333 0.0 0.9 0.00 0.00 0.00 42 1013.6
20260831062403 89 333 0.0 0.9 0.00 0.00 0.00 41 1013.7
20260831061903 89 355 0.0 0.9 0.00 0.00 0.00 41 1013.7
20260831061403 89 18 0.0 0.0 0.00 0.00 0.00 41 1013.7
20260831060904 89 18 0.0 0.0 0.00 0.00 0.00 41 1013.6
20260831060404 89 18 0.0 0.0 0.00 0.00 0.00 41 1013.6
20260831055903 89 18 0.0 0.9 0.00 0.00 0.00 40 1013.6
20260831055403 90 18 0.0 0.9 0.00 0.00 0.00 40 1013.5
20260831054404 90 298 0.0 0.9 0.00 0.00 0.00 39 1013.4
20260831053903 90 298 0.0 0.9 0.00 0.00 0.00 39 1013.3
20260831053403 90 298 0.0 1.7 0.00 0.00 0.00 39 1013.4
20260831052903 90 242 0.9 2.6 0.00 0.00 0.00 39 1013.4
20260831052403 90 227 0.0 2.6 0.00 0.00 0.00 39 1013.3
20260831051903 90 338 0.9 2.6 0.00 0.00 0.00 38 1013.4
20260831051403 90 326 0.9 2.6 0.00 0.00 0.00 38 1013.3
20260831050903 90 11 0.0 2.6 0.00 0.00 0.00 38 1013.2
20260831050403 91 323 0.0 2.6 0.00 0.00 0.00 38 1013.1
20260831045904 91 291 0.0 2.6 0.00 0.00 0.00 37 1013.2
20260831045404 91 351 0.9 2.6 0.00 0.00 0.00 37 1013.1
20260831044903 91 350 0.9 2.6 0.00 0.00 0.00 37 1013.2
20260831044403 91 341 0.9 2.6 0.00 0.00 0.00 37 1013.2
20260831043903 91 336 0.9 2.6 0.00 0.00 0.00 37 1013.3
20260831043403 91 305 0.9 2.6 0.00 0.00 0.00 37 1013.4
20260831042904 91 12 0.0 2.6 0.00 0.00 0.00 37 1013.3
20260831041904 91 295 1.7 2.6 0.00 0.00 0.00 36 1013.3
20260831041403 92 301 0.9 2.6 0.00 0.00 0.00 36 1013.1
20260831040903 92 259 0.9 2.6 0.00 0.00 0.00 36 1013.0
20260831035903 92 244 1.7 7.0 0.00 0.00 0.00 36 1013.0
20260831035404 92 216 1.7 7.0 0.00 0.00 0.00 36 1013.0
20260831034904 92 227 1.7 5.2 0.00 0.00 0.00 36 1012.9
20260831034403 92 224 2.6 5.2 0.00 0.00 0.00 36 1012.9
20260831033403 92 230 0.9 5.2 0.00 0.00 0.00 35 1012.7
20260831032903 92 223 1.7 5.2 0.00 0.00 0.00 34 1012.6
20260831032404 93 271 0.0 2.6 0.00 0.00 0.00 34 1012.6
20260831031903 93 213 0.9 4.3 0.00 0.00 0.00 34 1012.4
20260831031403 93 276 0.9 4.3 0.00 0.00 0.00 33 1012.4
20260831030903 93 238 0.9 5.2 0.00 0.00 0.00 33 1012.4
20260831030403 93 234 1.7 5.2 0.00 0.00 0.00 33 1012.3
20260831025903 93 243 0.9 8.7 0.00 0.00 0.00 34 1012.3
20260831025403 93 225 2.6 8.7 0.00 0.00 0.00 34 1012.2
20260831024904 94 252 2.6 7.8 0.00 0.00 0.00 34 1012.0
20260831024404 94 232 2.6 7.8 0.00 0.00 0.00 34 1011.8
20260831023903 94 239 3.5 10.4 0.00 0.00 0.00 34 1011.7
20260831023404 94 234 4.3 10.4 0.00 0.00 0.00 34 1011.7
20260831022403 95 230 2.6 7.8 0.00 0.00 0.00 34 1011.4
20260831021904 95 224 4.3 7.8 0.00 0.00 0.00 34 1011.1
20260831021403 95 229 3.5 7.0 0.00 0.00 0.00 34 1011.0
20260831020903 95 251 2.6 6.1 0.00 0.00 0.00 34 1010.8
20260831020403 95 229 2.6 5.2 0.00 0.00 0.00 33 1010.7
20260831015403 96 231 2.6 7.8 0.00 0.00 0.00 33 1010.6
20260831014904 96 237 3.5 7.8 0.00 0.00 0.00 32 1010.6
20260831014403 96 239 0.9 4.3 0.00 0.00 0.00 32 1010.5
20260831013403 96 237 1.7 2.6 0.00 0.00 0.00 32 1010.4
20260831012903 96 241 0.9 2.6 0.00 0.00 0.00 32 1010.4
20260831011903 96 277 0.9 5.2 0.00 0.00 0.00 31 1010.4
20260831011403 96 240 2.6 5.2 0.00 0.00 0.00 31 1010.4
20260831010903 96 229 2.6 5.2 0.00 0.00 0.00 31 1010.3
20260831005903 97 157 0.0 5.2 0.00 0.00 0.00 31 1010.3
20260831005404 97 298 0.9 5.2 0.00 0.00 0.00 31 1010.3
20260831003904 97 243 0.0 7.0 0.00 0.00 0.00 30 1010.3
20260831003403 97 19 0.9 7.0 0.00 0.00 0.00 29 1010.3
20260831002903 97 242 2.6 7.0 0.00 0.00 0.00 29 1010.3
20260831002404 98 243 0.9 6.1 0.00 0.00 0.00 29 1010.4
20260831001904 98 200 0.9 6.1 0.00 0.00 0.00 29 1010.4
20260831001403 98 229 0.9 6.1 0.00 0.00 0.00 29 1010.3
20260831000903 98 210 0.9 6.1 0.00 0.00 0.00 29 1010.5
20260831000403 98 256 0.0 6.1 0.00 0.00 0.00 28 1010.4
20260830235903 98 243 2.6 6.1 0.00 0.00 0.00 29 1010.4
20260830235403 98 237 2.6 6.1 0.00 0.00 0.00 29 1010.4
20260830234903 98 71 2.6 7.0 0.00 0.00 0.00 29 1010.4
20260830234403 98 224 2.6 7.0 0.00 0.00 0.00 29 1010.3
20260830233903 98 240 2.6 6.1 0.00 0.00 0.00 29 1010.4
20260830233404 98 46 1.7 5.2 0.00 0.00 0.00 28 1010.3
20260830232904 98 214 0.9 5.2 0.00 0.00 0.00 29 1010.5
20260830232403 98 251 1.7 5.2 0.00 0.00 0.00 29 1010.6
20260830231904 98 236 2.6 6.1 0.00 0.00 0.00 29 1010.6
20260830231403 98 238 0.9 6.1 0.00 0.00 0.00 28 1010.6
20260830230903 98 263 0.9 2.6 0.00 0.00 0.00 28 1010.7
20260830230403 99 316 0.9 5.2 0.00 0.00 0.00 29 1010.9
20260830225903 99 162 1.7 6.1 0.00 0.00 0.00 29 1011.0
20260830223404 99 11 0.9 7.0 0.00 0.00 0.00 28 1011.4
20260830222903 99 190 0.9 7.0 0.00 0.00 0.00 29 1011.5
20260830222403 99 298 1.7 7.0 0.00 0.00 0.00 29 1011.6
20260830221903 99 227 2.6 7.8 0.00 0.00 0.00 29 1011.6
20260830221403 99 318 2.6 7.8 0.00 0.00 0.00 29 1011.7
20260830220904 99 233 1.7 7.0 0.00 0.00 0.00 30 1011.7
20260830220404 99 293 2.6 7.0 0.00 0.00 0.00 30 1011.8
20260830215904 99 222 2.6 7.0 0.00 0.00 0.00 29 1012.0
20260830215403 99 172 1.7 7.0 0.00 0.00 0.00 29 1012.0
20260830214903 99 259 2.6 7.0 0.00 0.00 0.00 30 1012.1
20260830214403 99 299 0.9 7.0 0.00 0.00 0.00 30 1012.2
20260830213903 99 287 2.6 7.0 0.00 0.00 0.00 30 1012.3
20260830213403 98 282 1.7 7.0 0.00 0.00 0.00 30 1012.3
20260830212904 98 231 0.9 5.2 0.00 0.00 0.00 30 1012.4